Date,TemperatureHighF,TemperatureAvgF,TemperatureLowF,DewpointHighF,DewpointAvgF,DewpointLowF,HumidityHigh,HumidityAvg,HumidityLow,PressureMaxIn,PressureMinIn,WindSpeedMaxMPH,WindSpeedAvgMPH,GustSpeedMaxMPH,PrecipitationSumIn
2013-9-1,78.0,67.3,60.0,61.0,59.2,55.0,95,77,52,29.89,29.80,5,1,10,0.00
2013-9-2,82.0,70.3,60.0,61.0,58.2,56.0,87,67,46,29.94,29.86,5,1,10,0.00
2013-9-3,74.0,65.6,62.0,65.0,61.4,58.0,95,87,58,30.03,29.94,4,1,6,0.20
2013-9-4,68.0,63.6,60.0,63.0,60.5,58.0,96,89,82,30.05,30.00,4,1,7,0.03
2013-9-5,69.0,63.2,61.0,63.0,60.3,59.0,96,90,79,30.04,29.92,5,1,11,0.70
2013-9-6,71.0,63.6,60.0,64.0,61.0,59.0,97,91,77,30.11,29.95,3,1,7,2.04
2013-9-7,74.0,64.4,61.0,63.0,58.8,-99.9,94,85,67,30.11,30.01,3,0,6,0.03
2013-9-8,78.0,66.3,59.0,65.0,60.8,58.0,96,84,59,30.11,30.02,3,1,7,0.00
2013-9-9,78.0,66.4,60.0,65.0,61.2,58.0,96,84,60,30.06,29.97,3,1,7,0.00
2013-9-10,79.0,65.8,57.0,66.0,60.9,56.0,96,85,64,30.00,29.88,3,1,5,0.00
2013-9-11,92.0,72.5,60.0,68.0,63.0,59.0,96,76,39,29.94,29.86,4,1,6,0.00
2013-9-12,80.0,68.9,61.0,64.0,62.1,59.0,94,80,56,30.00,29.90,6,2,10,0.00
2013-9-13,67.0,63.4,60.0,62.0,60.5,59.0,96,90,85,29.97,29.88,3,1,6,0.00
2013-9-14,67.0,63.5,62.0,63.0,59.4,-99.9,96,88,84,29.88,29.74,2,0,5,0.00
2013-9-15,66.0,63.4,61.0,62.0,61.3,60.0,96,92,85,29.82,29.71,3,1,6,0.14
2013-9-16,60.0,59.1,59.0,56.0,54.7,54.0,88,86,85,29.93,29.92,2,1,4,0.00
2013-9-17,62.0,59.0,57.0,55.0,53.3,52.0,92,82,71,29.93,29.87,2,1,6,0.00
2013-9-18,59.0,56.1,54.0,54.0,52.8,51.0,92,89,77,30.06,29.93,1,0,4,0.00
2013-9-19,79.0,61.2,48.0,56.0,51.7,47.0,96,74,43,30.05,29.76,4,1,6,0.00
2013-9-20,75.0,62.5,53.0,58.0,53.3,49.0,94,73,45,29.76,29.59,6,1,12,0.04
2013-9-21,69.0,61.2,57.0,57.0,53.1,-99.9,94,78,55,29.71,29.65,5,1,10,0.04
2013-9-22,62.0,57.8,55.0,56.0,53.1,51.0,92,85,68,29.74,29.58,4,2,12,0.47
2013-9-23,61.0,56.6,52.0,56.0,52.5,49.0,91,86,77,29.97,29.74,4,2,13,0.12
2013-9-24,63.0,54.9,50.0,51.0,48.9,47.0,95,81,56,29.96,29.84,4,1,10,0.02
2013-9-25,58.0,51.7,48.0,51.0,48.4,46.0,95,89,68,30.03,29.86,3,0,7,0.04
2013-9-26,61.0,51.3,44.0,50.0,47.1,43.0,97,87,65,30.14,30.03,5,1,9,0.01
2013-9-27,58.0,54.1,49.0,53.0,50.0,46.0,91,86,80,30.13,29.85,4,1,12,0.10
2013-9-28,61.0,55.5,52.0,58.0,52.3,-99.9,95,91,86,29.85,29.36,7,2,16,1.58
2013-9-29,58.0,53.2,51.0,52.0,49.7,48.0,92,88,75,29.57,29.18,6,2,15,0.86
2013-9-30,56.0,51.1,48.0,52.0,48.5,45.0,94,91,87,29.88,29.44,5,2,19,1.35